EW4885 Weather Reports


time (UTC)temp
F
wind
direction
speed
knots
gust
knots
rain 1hr
in
rain 24hr
in
rain mn
in
humidity
%
barometer
mb
20260906213004 69 257 0.0 2.6 0.00 0.00 0.00 76 1019.0
20260906211503 69 74 0.0 0.0 0.00 0.00 0.00 76 1018.7
20260906210003 70 74 0.0 0.0 0.00 0.00 0.00 75 1018.6
20260906204502 71 74 0.0 0.0 0.00 0.00 0.00 73 1018.6
20260906203002 71 74 0.0 0.0 0.00 0.00 0.00 72 1018.8
20260906201502 72 74 0.0 0.0 0.00 0.00 0.00 70 1018.8
20260906200001 73 62 0.0 0.0 0.00 0.00 0.00 68 1018.8
20260906194613 73 62 0.0 0.0 0.00 0.00 0.00 66 1018.9
20260906193048 74 62 0.9 2.6 0.00 0.00 0.00 66 1018.8
20260906191540 75 61 0.9 2.6 0.00 0.00 0.00 66 1018.6
20260906190058 77 32 0.9 1.7 0.00 0.00 0.00 64 1018.6
20260906184540 78 32 0.9 1.7 0.00 0.00 0.00 60 1018.6
20260906183043 79 32 0.0 0.0 0.00 0.00 0.00 60 1018.5
20260906181541 81 32 0.9 2.6 0.00 0.00 0.00 57 1018.3
20260906180037 82 30 0.0 1.7 0.00 0.00 0.00 54 1018.3
20260906174536 84 30 0.0 1.7 0.00 0.00 0.00 50 1018.3
20260906173037 86 30 0.9 1.7 0.00 0.00 0.00 45 1018.4
20260906171535 87 30 0.9 2.6 0.00 0.00 0.00 41 1018.4
20260906170035 87 26 0.9 1.7 0.00 0.00 0.00 40 1018.4
20260906164534 88 42 0.9 2.6 0.00 0.00 0.00 39 1018.4
20260906163033 88 34 0.0 0.0 0.00 0.00 0.00 37 1018.4
20260906161534 88 360 0.9 2.6 0.00 0.00 0.00 38 1018.4
20260906160034 89 260 0.9 2.6 0.00 0.00 0.00 38 1018.5
20260906154534 90 225 0.0 3.5 0.00 0.00 0.00 36 1018.5
20260906153030 91 252 1.7 3.5 0.00 0.00 0.00 37 1018.6
20260906151527 90 205 0.0 4.3 0.00 0.00 0.00 36 1018.8
20260906150032 90 313 0.9 3.5 0.00 0.00 0.00 37 1019.0
20260906144524 90 256 0.0 3.5 0.00 0.00 0.00 38 1019.1
20260906143022 90 309 0.0 4.3 0.00 0.00 0.00 37 1019.3
20260906141518 89 165 0.9 4.3 0.00 0.00 0.00 40 1019.4
20260906140036 88 254 3.5 6.1 0.00 0.00 0.00 41 1019.5
20260906134515 88 289 0.9 6.1 0.00 0.00 0.00 40 1019.6
20260906133012 88 240 3.5 7.8 0.00 0.00 0.00 41 1019.8
20260906131511 87 210 2.6 7.0 0.00 0.00 0.00 43 1019.8
20260906130011 86 289 2.6 7.0 0.00 0.00 0.00 45 1019.9
20260906124504 86 228 1.7 7.0 0.00 0.00 0.00 47 1020.1
20260906123008 85 238 4.3 7.0 0.00 0.00 0.00 47 1020.4
20260906121600 84 217 2.6 4.3 0.00 0.00 0.00 50 1020.4
20260906120058 83 174 1.7 6.1 0.00 0.00 0.00 49 1020.5
20260906114558 83 55 0.9 5.2 0.00 0.00 0.00 50 1020.5
20260906113058 83 146 1.7 5.2 0.00 0.00 0.00 51 1020.7
20260906111554 81 104 1.7 4.3 0.00 0.00 0.00 52 1020.8
20260906110057 80 109 2.6 5.2 0.00 0.00 0.00 56 1021.0
20260906104543 80 229 0.0 3.5 0.00 0.00 0.00 58 1021.3
20260906103040 79 140 0.9 3.5 0.00 0.00 0.00 58 1021.5
20260906101537 77 141 0.9 5.2 0.00 0.00 0.00 61 1021.8
20260906100035 75 231 0.9 3.5 0.00 0.00 0.00 63 1022.0
20260906094528 75 316 0.9 4.3 0.00 0.00 0.00 65 1022.1
20260906093042 74 274 1.7 3.5 0.00 0.00 0.00 66 1022.2
20260906091521 73 16 0.0 3.5 0.00 0.00 0.00 66 1022.4
20260906090020 72 133 0.0 3.5 0.00 0.00 0.00 68 1022.5
20260906084517 70 281 1.7 6.1 0.00 0.00 0.00 69 1022.6
20260906083012 69 261 0.9 5.2 0.00 0.00 0.00 72 1022.7
20260906081504 68 253 1.7 5.2 0.00 0.00 0.00 74 1022.8
20260906080108 67 246 1.7 3.5 0.00 0.00 0.00 76 1022.6
20260906074600 66 109 0.0 0.0 0.00 0.00 0.00 76 1022.5
20260906073010 64 27 0.0 0.0 0.00 0.00 0.00 77 1022.5
20260906071505 62 49 0.0 0.0 0.00 0.00 0.00 80 1022.6
20260906070002 61 40 0.0 0.0 0.00 0.00 0.00 82 1022.7
20260906064559 60 301 0.0 2.6 0.00 0.00 0.00 83 1022.8
20260906063057 60 335 0.9 2.6 0.00 0.00 0.00 84 1022.6
20260906061601 59 301 0.0 0.0 0.00 0.00 0.00 86 1022.6
20260906060050 59 323 0.0 0.0 0.00 0.00 0.00 87 1022.4
20260906054547 58 310 0.0 0.0 0.00 0.00 0.00 89 1022.2
20260906053052 58 310 0.0 0.0 0.00 0.00 0.00 89 1022.1
20260906051542 58 307 0.9 2.6 0.00 0.00 0.00 90 1022.1
20260906050042 58 304 0.9 2.6 0.00 0.00 0.00 90 1021.8
20260906044539 59 273 0.9 3.5 0.00 0.00 0.00 89 1021.8
20260906043038 59 302 0.0 0.0 0.00 0.00 0.00 89 1021.7
20260906041546 60 289 0.9 2.6 0.00 0.00 0.00 89 1021.7
20260906040035 60 342 0.0 2.6 0.00 0.00 0.00 89 1021.7
20260906034541 60 5 0.9 1.7 0.00 0.00 0.00 89 1021.8
20260906033035 61 5 0.9 2.6 0.00 0.00 0.00 88 1021.8
20260906031536 61 5 0.0 2.6 0.00 0.00 0.00 87 1021.9
20260906030034 61 338 1.7 3.5 0.00 0.00 0.00 87 1021.9
20260906024528 62 322 1.7 4.3 0.00 0.00 0.00 88 1022.0
20260906023027 62 309 2.6 4.3 0.00 0.00 0.00 89 1022.0
20260906021526 62 269 1.7 3.5 0.00 0.00 0.00 89 1022.0
20260906020024 62 319 0.0 0.0 0.00 0.00 0.00 88 1021.9
20260906014538 63 319 0.0 0.0 0.00 0.00 0.00 88 1021.9
20260906013023 63 338 0.0 0.0 0.00 0.00 0.00 87 1021.8
20260906011517 64 15 0.0 1.7 0.00 0.00 0.00 86 1021.8
20260906010035 64 5 1.7 3.5 0.00 0.00 0.00 86 1021.8
20260906004514 65 341 2.6 5.2 0.00 0.00 0.00 85 1021.6
20260906003013 65 351 1.7 3.5 0.00 0.00 0.00 85 1021.7
20260906001511 65 304 1.7 2.6 0.00 0.00 0.00 84 1021.8
20260906000011 65 319 2.6 4.3 0.00 0.00 0.00 85 1021.8
20260905234510 65 320 1.7 3.5 0.00 0.00 0.00 85 1021.9
20260905233010 65 306 0.9 2.6 0.00 0.00 0.00 84 1022.1
20260905231506 66 338 0.0 0.0 0.00 0.00 0.00 83 1021.9
20260905230004 66 338 0.0 0.0 0.00 0.00 0.00 82 1022.1
20260905224502 67 338 0.0 0.0 0.00 0.00 0.00 81 1022.1
20260905223058 68 338 0.0 2.6 0.00 0.00 0.00 79 1022.1
20260905221557 68 333 1.7 3.5 0.00 0.00 0.00 79 1021.9
20260905220055 68 316 2.6 5.2 0.00 0.00 0.00 79 1021.9
20260905214554 69 314 0.9 2.6 0.00 0.00 0.00 78 1021.9
20260905213057 69 324 1.7 3.5 0.00 0.00 0.00 77 1021.9